Location: Unspecified
(0.0000°N, 0.0000°E)
Time: 11:20:51
(UTC+00:00)

deb Explorer IX - Pass Details

Date: 19 November 2019
Orbit: 546 x 1104 km, 38.8° (Epoch: 14 December)

Event Time Altitude Azimuth Distance (km) Brightness Sun altitude
Rises 22:05:09 0° 248° (WSW) 3,897 ? -58.6°
Enters shadow 22:06:11 - 251° (WSW) 3,566 ? -58.8°
Reaches altitude 10° 22:08:12 10° 257° (WSW) 2,954 - -59.2°
Maximum altitude 22:14:38 33° 319° (NW) 1,727 - -60.4°
Drops below altitude 10° 22:20:51 10° 21° (NNE) 2,834 - -61.5°
Sets 22:23:44 0° 31° (NNE) 3,719 - -62.0°
